Precipitable_Water
0.84 0.80 0.89 0.91 0.90 0.89 0.88 0.89 0.91 0.94 0.96 0.98 1.02 1.01 1.00 1.01 0.98 1.02 0.96 1.12 1.15 1.23 1.29 1.48 1.66 1.75 1.79 1.59 1.56 1.36 0.87 0.75 0.80 0.78 0.89 0.94 0.93 1.09 1.18 0.99 0.96 0.97 0.93 0.94 1.18
0.78 0.81 0.88 0.91 0.90 0.88 0.86 0.89 0.91 0.94 0.95 0.98 1.02 1.06 1.04 1.08 0.99 0.93 1.12 1.20 1.22 1.27 1.32 1.48 1.51 1.72 1.48 1.44 1.28 1.06 0.82 0.79 0.98 1.02 0.99 1.01 0.92 0.96 1.01 0.99 0.88 0.88 1.06 1.09 1.10
0.80 0.82 0.85 0.88 0.87 0.86 0.86 0.90 0.92 0.93 0.94 0.99 1.04 1.08 1.07 1.10 0.97 0.91 1.23 1.22 1.24 1.32 1.59 1.56 1.63 1.59 1.37 1.33 1.18 1.03 0.82 0.96 0.98 1.06 1.10 1.01 0.89 0.98 0.93 0.89 0.99 0.81 0.87 1.03 0.96
0.80 0.80 0.80 0.81 0.83 0.85 0.87 0.89 0.91 0.91 0.93 0.98 1.02 1.07 1.09 1.03 0.69 1.10 1.24 1.23 1.34 1.40 1.61 1.46 1.48 1.28 1.17 1.07 1.19 0.89 0.98 1.05 1.05 1.10 1.08 0.99 1.01 0.88 0.87 0.84 1.02 1.10 1.08 1.00 0.89
0.73 0.75 0.74 0.75 0.80 0.83 0.85 0.88 0.89 0.89 0.91 0.95 0.99 1.01 0.98 0.81 0.92 1.31 1.20 1.26 1.34 1.54 1.51 1.45 1.38 1.31 1.10 1.08 1.09 0.96 0.97 1.06 1.09 1.08 1.04 1.05 0.91 0.89 0.86 0.93 0.98 1.08 1.07 0.98 1.01
0.71 0.71 0.71 0.73 0.77 0.80 0.82 0.83 0.87 0.86 0.88 0.93 0.96 1.02 0.86 0.77 1.19 1.30 1.18 1.23 1.39 1.54 1.53 1.52 1.44 1.46 1.18 1.13 1.03 1.02 1.02 1.02 1.05 1.03 1.01 0.93 0.87 0.92 0.98 1.11 1.09 1.07 0.98 0.96 0.91
0.70 0.71 0.72 0.73 0.74 0.76 0.79 0.80 0.81 0.82 0.84 0.90 0.94 0.96 0.81 0.80 1.12 1.24 1.21 1.29 1.53 1.62 1.51 1.62 1.59 1.28 1.23 1.08 1.16 1.08 0.90 0.94 0.97 0.99 0.90 0.93 0.78 0.84 1.06 1.18 1.14 1.13 1.11 1.01 0.98
0.66 0.68 0.70 0.71 0.72 0.71 0.75 0.77 0.77 0.79 0.82 0.89 0.93 0.89 0.76 0.96 1.17 1.21 1.28 1.43 1.63 1.65 1.65 1.64 1.54 1.28 1.21 1.18 1.03 0.95 0.88 0.70 0.88 0.95 0.95 0.87 0.60 0.84 1.03 1.07 1.09 1.19 1.19 1.13 1.05
0.61 0.62 0.64 0.66 0.68 0.69 0.70 0.73 0.77 0.79 0.83 0.90 0.84 0.79 0.73 1.07 0.96 1.16 1.44 1.35 1.50 1.52 1.60 1.61 1.34 1.16 1.19 0.92 0.82 0.84 0.65 0.65 0.68 0.84 0.83 0.81 0.65 0.84 1.00 0.99 1.01 1.12 1.20 1.16 1.16
0.58 0.58 0.59 0.61 0.62 0.64 0.65 0.69 0.79 0.80 0.81 0.89 0.83 0.69 0.79 0.82 0.95 1.01 1.32 1.32 1.17 1.31 1.28 1.22 1.13 1.00 1.01 0.86 0.60 0.63 0.62 0.63 0.59 0.71 0.73 0.71 0.72 0.84 0.92 0.93 0.95 1.04 1.11 1.19 1.17
0.53 0.54 0.56 0.57 0.58 0.58 0.53 0.50 0.51 0.55 0.68 0.59 0.65 0.69 0.79 0.83 0.91 0.94 1.15 1.23 1.22 1.20 1.01 1.10 0.96 0.86 0.90 0.84 0.79 0.71 0.65 0.62 0.67 0.70 0.65 0.67 0.68 0.68 0.81 0.86 0.90 0.99 1.04 1.10 1.22
0.52 0.50 0.51 0.51 0.52 0.52 0.51 0.44 0.49 0.53 0.48 0.58 0.61 0.65 0.76 0.80 0.75 0.82 1.06 0.95 1.11 1.00 1.08 0.97 0.86 0.99 0.97 0.80 0.70 0.70 0.62 0.59 0.66 0.65 0.66 0.59 0.57 0.64 0.63 0.68 0.80 0.87 0.96 1.05 1.17
0.54 0.52 0.50 0.48 0.48 0.43 0.41 0.45 0.60 0.59 0.46 0.46 0.54 0.58 0.64 0.77 0.74 0.80 0.95 0.91 0.97 0.95 0.97 0.88 0.93 1.05 0.90 0.73 0.64 0.67 0.57 0.51 0.51 0.58 0.56 0.52 0.49 0.53 0.55 0.65 0.67 0.74 0.85 0.99 1.05
0.52 0.49 0.47 0.46 0.34 0.36 0.39 0.52 0.62 0.63 0.35 0.36 0.42 0.49 0.62 0.71 0.71 0.89 0.94 0.88 0.94 0.90 0.93 0.88 0.95 0.96 0.84 0.74 0.69 0.56 0.63 0.56 0.50 0.45 0.38 0.49 0.32 0.43 0.48 0.47 0.50 0.59 0.68 0.81 0.92
0.51 0.49 0.47 0.46 0.33 0.28 0.40 0.53 0.59 0.51 0.21 0.39 0.36 0.54 0.62 0.65 0.76 0.77 0.98 0.91 0.89 0.90 0.88 0.80 0.86 0.90 0.77 0.73 0.71 0.60 0.62 0.54 0.53 0.49 0.44 0.42 0.32 0.32 0.41 0.38 0.42 0.52 0.59 0.67 0.80
0.49 0.48 0.47 0.40 0.39 0.35 0.43 0.48 0.52 0.28 0.22 0.35 0.36 0.40 0.54 0.65 0.73 0.82 0.90 0.96 0.96 0.84 0.81 0.80 0.91 0.88 0.80 0.80 0.75 0.68 0.59 0.52 0.54 0.48 0.34 0.35 0.31 0.27 0.30 0.37 0.43 0.54 0.63 0.71 0.69
0.47 0.45 0.44 0.42 0.25 0.38 0.43 0.39 0.24 0.17 0.37 0.34 0.32 0.42 0.50 0.57 0.66 0.70 0.77 0.74 0.68 0.59 0.57 0.63 0.69 0.82 0.81 0.68 0.71 0.65 0.52 0.34 0.32 0.30 0.26 0.35 0.29 0.30 0.39 0.49 0.52 0.51 0.57 0.70 0.75
0.46 0.43 0.42 0.41 0.42 0.39 0.37 0.27 0.15 0.15 0.32 0.42 0.37 0.42 0.40 0.52 0.59 0.62 0.60 0.61 0.66 0.60 0.52 0.46 0.40 0.55 0.68 0.60 0.56 0.55 0.49 0.39 0.27 0.25 0.27 0.33 0.25 0.33 0.44 0.56 0.66 0.70 0.74 0.80 0.85
0.44 0.38 0.38 0.43 0.46 0.40 0.28 0.18 0.14 0.18 0.32 0.26 0.30 0.33 0.35 0.45 0.55 0.56 0.52 0.50 0.58 0.60 0.49 0.43 0.40 0.52 0.50 0.53 0.54 0.48 0.43 0.47 0.37 0.38 0.29 0.28 0.31 0.38 0.49 0.56 0.64 0.66 0.69 0.73 0.83
0.37 0.33 0.37 0.51 0.49 0.30 0.19 0.17 0.17 0.26 0.35 0.26 0.24 0.28 0.25 0.30 0.43 0.50 0.48 0.45 0.45 0.54 0.57 0.46 0.35 0.41 0.42 0.47 0.46 0.41 0.44 0.35 0.37 0.28 0.25 0.26 0.26 0.26 0.38 0.46 0.62 0.67 0.73 0.78 0.88
0.37 0.27 0.46 0.55 0.37 0.24 0.13 0.13 0.15 0.21 0.32 0.27 0.25 0.24 0.27 0.24 0.29 0.37 0.35 0.36 0.34 0.36 0.43 0.39 0.31 0.28 0.32 0.30 0.31 0.32 0.30 0.32 0.31 0.32 0.26 0.23 0.24 0.40 0.49 0.63 0.69 0.79 0.86 0.80 0.82
0.33 0.26 0.49 0.43 0.22 0.22 0.16 0.16 0.18 0.16 0.22 0.29 0.27 0.24 0.24 0.29 0.27 0.24 0.22 0.25 0.34 0.33 0.27 0.31 0.28 0.23 0.26 0.33 0.33 0.31 0.29 0.29 0.23 0.26 0.31 0.29 0.26 0.49 0.71 0.82 0.87 0.90 0.95 0.99 0.96
0.31 0.38 0.54 0.40 0.17 0.17 0.19 0.18 0.18 0.21 0.21 0.22 0.23 0.26 0.29 0.30 0.28 0.29 0.26 0.31 0.36 0.35 0.31 0.32 0.25 0.21 0.22 0.28 0.32 0.29 0.31 0.32 0.34 0.34 0.29 0.27 0.29 0.60 0.78 0.90 0.98 0.93 0.97 1.12 1.19
0.39 0.30 0.39 0.35 0.33 0.26 0.22 0.23 0.24 0.30 0.26 0.26 0.26 0.26 0.25 0.26 0.32 0.29 0.30 0.35 0.41 0.39 0.42 0.38 0.32 0.28 0.24 0.29 0.33 0.29 0.30 0.33 0.32 0.29 0.30 0.28 0.32 0.50 0.69 0.80 0.88 0.90 0.94 0.99 1.02
0.48 0.39 0.46 0.30 0.28 0.32 0.34 0.32 0.28 0.27 0.32 0.27 0.20 0.23 0.24 0.23 0.28 0.29 0.32 0.36 0.41 0.43 0.39 0.37 0.30 0.33 0.34 0.34 0.34 0.34 0.34 0.34 0.32 0.33 0.27 0.29 0.30 0.45 0.69 0.77 0.81 0.89 0.92 0.92 0.94
0.44 0.41 0.50 0.44 0.43 0.36 0.34 0.32 0.32 0.33 0.31 0.26 0.20 0.20 0.23 0.26 0.27 0.28 0.33 0.35 0.33 0.41 0.38 0.39 0.31 0.33 0.31 0.35 0.36 0.33 0.36 0.34 0.35 0.37 0.37 0.39 0.39 0.61 0.78 0.80 0.74 0.77 0.82 0.82 0.84
0.49 0.57 0.50 0.44 0.43 0.38 0.35 0.35 0.36 0.38 0.37 0.36 0.30 0.26 0.25 0.28 0.36 0.34 0.37 0.40 0.40 0.37 0.37 0.36 0.33 0.30 0.26 0.32 0.33 0.28 0.34 0.39 0.42 0.47 0.44 0.38 0.47 0.62 0.63 0.66 0.70 0.72 0.75 0.78 0.82
Wind_Speed
6 6 6 6 7 7 6 5 4 4 4 3 3 3 5 6 7 9 10 10 9 8 7 6 5 5 5 5 5 6 7 8 8 7 7 7 7 8 9 9 7 7 7 8 14
6 6 7 7 7 7 6 5 5 4 4 3 3 4 5 5 8 10 11 12 10 9 7 6 6 5 5 6 6 7 8 8 8 7 7 7 7 8 8 9 8 8 9 11 14
6 7 7 7 8 7 7 6 5 5 4 4 3 4 5 6 8 10 12 13 12 10 7 6 6 6 7 7 7 8 8 9 10 9 8 8 7 8 8 7 6 6 9 11 13
7 8 8 8 8 8 7 7 6 6 5 4 4 4 5 7 9 10 13 14 13 11 7 7 7 8 8 7 7 8 7 7 8 9 9 8 9 8 7 9 9 8 10 11 11
8 8 8 8 8 8 8 7 7 6 6 5 5 5 6 8 10 10 15 15 14 11 9 9 9 9 8 7 7 7 5 5 6 6 7 9 9 9 9 11 13 12 11 11 10
8 8 8 8 8 9 8 8 8 8 7 6 6 6 7 9 10 13 16 16 15 12 9 9 9 9 8 7 6 3 1 1 4 6 7 7 9 9 10 12 13 13 12 12 11
8 8 8 9 9 9 9 9 9 9 8 7 7 7 8 11 10 15 17 16 14 12 10 10 9 9 7 6 4 2 3 4 5 4 6 8 7 6 8 9 10 9 9 9 9
8 9 9 9 10 10 10 10 10 10 9 8 8 8 10 11 13 16 18 16 13 12 11 10 10 8 7 5 5 5 4 4 4 4 5 5 5 5 6 6 6 6 6 6 7
10 10 10 11 11 11 11 11 10 9 9 9 9 9 10 13 15 17 18 15 13 11 12 11 8 9 7 5 6 4 3 2 2 2 4 4 0 4 3 2 2 4 5 5 5
11 11 11 11 11 12 11 11 10 10 10 10 10 10 13 13 16 17 18 16 12 12 13 12 10 8 7 5 5 3 3 1 2 2 4 4 5 2 1 3 4 4 6 8 7
11 12 12 12 12 11 10 9 10 10 12 13 10 12 12 13 16 17 17 17 13 12 14 12 11 9 7 6 4 4 4 1 2 1 2 2 3 5 3 4 6 6 8 10 10
11 11 11 11 11 9 8 9 8 9 11 15 17 15 15 15 15 17 18 17 15 15 15 14 13 11 8 5 4 4 3 1 2 3 1 1 2 5 3 4 4 5 7 10 11
11 11 10 10 9 7 8 9 8 9 11 12 16 17 18 19 18 18 20 18 15 16 16 15 11 13 8 5 4 4 1 2 2 2 1 4 4 4 2 5 3 4 5 8 12
12 11 10 9 7 7 7 7 8 9 8 11 15 16 19 19 17 20 21 18 16 17 16 15 12 12 9 6 5 4 4 5 5 4 4 5 6 6 5 6 6 7 6 8 10
13 12 10 8 8 7 7 6 7 8 8 10 13 13 18 21 16 19 20 18 19 18 16 14 13 13 9 8 6 6 5 4 4 5 6 5 7 7 5 5 10 10 11 10 12
15 13 12 9 9 9 8 6 7 7 9 8 12 16 20 19 17 17 19 18 18 18 16 16 13 12 12 10 10 8 7 5 5 6 7 5 6 5 4 7 11 13 14 14 13
17 16 14 12 10 10 9 9 7 9 6 8 11 16 19 20 20 17 21 22 20 17 19 17 19 17 14 13 11 11 9 9 9 8 8 5 8 8 5 8 11 14 16 15 14
19 17 15 15 13 12 12 10 10 8 9 7 9 13 19 19 21 18 17 22 20 18 14 17 17 19 18 18 15 13 12 11 12 11 11 8 8 6 6 9 11 12 13 14 12
18 17 16 16 17 16 15 14 11 10 9 8 10 13 15 19 18 20 19 19 23 22 19 15 15 15 16 16 17 14 15 12 10 10 11 10 11 12 9 9 11 13 14 14 12
16 17 18 17 18 18 17 16 14 12 10 9 10 11 15 17 20 19 19 16 22 24 23 18 17 16 15 15 14 16 14 13 13 15 15 11 11 13 11 13 13 13 14 14 12
15 15 16 19 19 19 19 19 18 16 14 12 11 11 11 14 18 19 17 18 16 19 22 20 19 15 16 16 17 14 15 12 13 14 15 15 13 11 13 13 12 12 12 11 9
14 14 15 18 20 20 20 20 18 18 18 16 15 14 14 13 15 17 19 18 17 17 16 17 16 20 23 18 17 17 17 15 17 15 14 15 16 13 12 12 11 11 11 10 10
13 15 15 16 17 20 21 21 21 21 20 19 18 18 15 15 15 17 17 16 16 17 17 18 16 16 16 14 16 19 18 17 15 15 16 16 15 13 13 11 11 11 12 12 13
12 13 15 16 15 16 18 20 20 21 22 23 22 21 19 19 19 16 18 17 15 16 15 17 16 18 19 14 13 16 19 18 19 18 17 19 17 16 15 13 13 14 14 15 15
10 12 14 15 18 17 16 15 18 20 22 23 23 27 23 22 21 21 20 18 17 17 16 18 17 18 18 18 17 17 18 19 21 21 21 21 20 19 17 15 15 16 17 17 17
11 12 13 15 15 17 18 17 17 17 19 21 25 22 27 27 26 24 22 21 20 19 18 18 18 18 19 18 19 21 22 24 24 22 24 21 21 18 17 17 17 18 16 15 17
11 13 14 14 15 16 16 16 15 14 16 20 21 22 26 28 29 30 25 24 22 22 21 20 19 19 23 20 22 27 26 26 24 24 24 23 22 20 20 19 18 17 17 18 18
Wind_Direction
287 279 280 288 296 301 299 300 300 299 295 282 266 233 212 207 206 190 189 180 174 165 158 153 152 147 116 105 89 99 80 70 72 83 70 92 96 83 72 82 75 77 84 108 138
288 280 281 286 291 293 287 287 290 290 286 276 260 232 215 210 198 196 188 180 170 167 161 149 148 148 128 115 105 102 88 75 73 72 79 84 101 96 80 84 73 80 83 117 138
289 285 283 285 288 285 280 278 279 281 276 267 253 231 216 206 191 183 183 179 177 171 162 161 156 152 143 121 109 108 96 85 72 73 73 84 101 100 87 88 82 95 109 128 141
290 287 286 285 283 280 275 271 272 271 268 259 248 233 221 194 183 184 180 176 175 171 168 159 150 146 144 134 119 116 110 89 76 77 77 78 90 88 102 75 67 95 115 129 145
289 288 285 283 282 278 271 266 266 265 261 253 242 231 205 195 193 187 177 175 171 166 153 146 142 145 140 135 131 127 100 94 87 84 79 83 94 93 93 79 84 98 110 121 140
291 289 283 283 282 277 270 265 262 260 255 249 235 222 202 198 189 181 175 174 171 167 161 156 151 148 146 143 135 118 76 70 87 99 99 94 88 102 86 93 93 101 105 110 118
292 288 284 283 282 277 271 265 261 256 249 240 225 214 202 201 185 178 176 173 171 171 163 157 154 153 150 153 140 148 104 97 98 95 119 115 101 97 99 105 105 105 109 115 120
292 288 286 284 281 278 271 266 261 253 241 228 216 210 205 192 183 177 176 175 177 181 175 166 161 161 163 173 150 139 121 96 85 111 120 137 95 79 113 119 124 131 130 138 139
293 290 286 284 282 279 271 262 256 241 224 214 213 209 203 189 186 182 180 179 182 185 182 178 175 166 164 155 146 124 131 74 72 125 140 156 142 52 125 156 166 179 184 179 175
293 291 288 285 283 279 270 254 239 232 223 220 217 209 199 188 186 184 186 182 179 179 182 179 173 172 161 149 148 169 130 68 340 138 162 184 264 332 244 241 247 236 217 210 206
296 293 290 287 284 278 256 238 236 229 222 215 205 202 191 191 188 188 188 188 192 192 186 182 180 184 181 179 185 196 191 236 59 111 162 194 276 316 301 275 263 258 231 223 223
302 298 293 288 283 264 239 230 225 229 235 224 220 216 206 196 194 190 187 189 192 192 187 188 198 190 181 187 189 167 166 116 224 71 164 345 300 325 338 326 280 272 245 236 235
303 302 296 290 279 240 239 224 230 237 230 226 212 209 203 197 199 197 193 192 192 190 193 197 189 184 198 193 176 178 141 340 245 307 173 310 291 328 334 345 333 309 281 253 243
299 299 295 291 247 245 226 223 247 218 225 215 207 207 199 196 204 200 197 197 199 198 196 204 203 199 195 208 202 192 230 280 279 279 300 327 310 302 308 324 330 332 298 271 260
292 290 285 268 249 227 215 240 213 217 218 195 198 199 194 195 191 198 199 201 198 197 199 201 199 198 214 205 215 234 272 278 272 261 282 298 294 305 310 312 328 325 322 308 285
285 281 275 246 235 226 224 226 205 204 217 199 194 194 189 197 195 193 198 199 200 202 210 211 210 218 214 224 245 249 245 270 265 267 279 291 301 296 316 319 321 320 324 316 308
280 273 257 239 227 221 220 206 209 208 212 196 198 195 197 197 197 198 199 201 202 204 215 217 224 229 230 237 240 241 251 267 265 269 278 276 287 278 273 317 320 323 327 325 309
276 265 243 234 227 224 210 208 216 214 215 209 203 198 203 198 205 203 201 207 211 210 211 222 228 224 227 237 246 238 248 255 267 267 282 273 271 280 276 310 321 327 328 332 331
271 248 238 232 226 219 213 217 221 217 219 228 206 202 206 206 209 206 213 216 215 213 220 221 233 234 235 236 238 238 244 255 253 265 270 277 278 280 284 303 322 329 331 331 327
261 245 235 233 220 217 218 224 227 224 227 221 212 212 207 205 207 210 211 217 219 216 222 226 241 236 235 230 240 245 235 247 254 258 265 266 277 279 297 307 315 323 328 330 326
251 239 239 222 218 220 224 226 230 231 227 226 222 224 220 213 214 214 219 220 218 216 223 225 236 232 237 238 240 239 240 249 254 258 263 274 276 274 289 296 305 314 320 332 332
245 234 230 225 223 228 226 226 229 231 229 232 230 229 228 221 218 217 220 226 223 216 217 226 235 240 246 249 247 244 247 249 251 250 261 271 273 276 281 288 294 306 312 315 321
245 236 227 226 228 228 230 231 232 234 234 232 233 231 230 231 227 220 222 220 223 220 222 221 234 239 242 241 243 243 242 243 247 254 250 261 275 271 275 278 288 298 304 304 303
242 232 227 226 229 228 227 232 234 234 237 235 236 235 234 235 232 232 227 225 230 230 232 224 235 240 246 253 254 247 238 238 245 253 256 260 268 264 264 268 281 291 296 297 298
243 234 231 227 228 231 232 233 237 238 237 236 236 234 233 236 233 233 232 231 232 232 235 239 244 244 250 249 251 253 247 243 247 255 257 269 262 258 259 267 277 286 291 292 294
243 242 237 233 232 231 231 233 236 240 239 239 237 237 234 237 236 234 231 235 235 234 237 243 246 248 254 255 255 256 255 255 254 257 261 265 264 263 262 270 275 284 286 289 292
249 244 240 235 233 231 234 232 235 240 242 241 241 243 242 242 243 239 239 242 242 239 240 245 245 250 257 260 263 259 257 254 257 257 259 255 265 256 263 267 274 278 280 286 289